O3B FM3 (40079 NORAD) Tracking and Keplerian Element Data

This shows tracking and keplerian element data for the satellite.

Feedback or suggestion? Click here.




ElementValue
Catalog40079
NameO3B FM3
Epoch Orbit7621
Epoch Day351.80550379
Epoch Year2018
RAAN10.3182
Inclination0.0479
Eccentricity3.33E-05
Argument of Perigee228.9147
Mean Anonmoly120.7674
Mean Motion5.00116166
Decay Rate-1.2E-07
L11 40079U 14038A 18351.80550379 -.00000012 00000-0 00000-0 0 9995
L22 40079 0.0479 10.3182 0000333 228.9147 120.7674 5.00116166 76218

Live tracking and technical data element details for O3B FM3 (NORAD 40079). O3B FM3 can be tracked NOW for your location showing map with azimuth and elevation plus other details from your city location.

Track the satellite on the map from your city or location and see movement details for azimuth, elevation, latitude, longitude, range, height, and movement on the map or in text.







IsCatalogInMostPopularTable: catalog: 40079, numindb: 103
Update: records affected: 1



GetName: 40079 O3B FM3

Hit Count: updated at: Wed, 19 Dec 2018 15:28:29 GMT